OPS 4682 DEB, 51501

Orbit data source: Space-Track

OPS 4682 DEB, 51501 is space debris in LEO originally from a launch on Sat, 03 Apr 1965 UTC launched from the Air Force Western Test Range (AFWTR). Debris objects in space refer to the collection of defunct objects orbiting the Earth. Examples of debris include non-operational satellites, rocket bodies, and fragments generated from explosions, collisions, or faulty payload assembly.

Loading next visibility...
Identifier
51501, 1965-027GM
Orbit
LEO
Country
Flag of USUS
Related business
Manufacturer
Unknown
Mission
Spacecraft
Bus & Motor
Unknown
Mass
Unknown
Launch date (UTC)
1965-04-03 (61 years ago)
Launch vehicle
Unknown
Launch site
Air Force Western Test Range (AFWTR)
Object type
Payload
Rocket body
Debris
Shape & HBR
Unknown
Radar Cross Section
Medium (>0.1 m² and <1 m²)

Expand to show TLE details & history
Last TLE update: 4 days ago

TLE from 4 days ago
0 OPS 4682 DEB
1 51501U 65027GM  26204.50203270 -.00000263  00000-0 -78646-3 0  9992
2 51501  90.3474  45.3697 0019733 230.3838 129.5548 13.09308211533503
Epoch: 2026-07-23T12:02Z
TLE epoch observation values (Epoch: 2026-07-23T12:02:55.625Z)
Latitude
-0.00002°
Longitude
-76.60417°
Altitude
1,238.305 km
Speed
7.231 km/s
True Right ascension
03h 01m 28s
True Declination
0° 00' 00"
Sunlit
Object was in daylight at epoch
Visualization orbit readout
Latitude
Unknown
Longitude
Unknown
Altitude
Unknown
Speed
Unknown
Apparent Right ascension
Unknown
Apparent Declination
Unknown
Sunlit
N/A
Visualization observer readout
Local Sidereal Time
21:09:45
Azimuth
Unknown
Elevation
Unknown
Doppler factor
Unknown
Orbital elements
Apogee altitude
1,237.945 km
Perigee altitude
1,207.947 km
Semi-major axis
7,601.083 km
Eccentricity
0.00197
Inclination
90.3474°
RAAN
45.3697°
Arg. of periapsis
230.3838°
True anomaly
129.72887°
Mean anomaly
129.5548°
Eccentric anomaly
129.64186°
Mean motion
3.27514 °/min
Orbital period
109.92 mins
BSTAR
-0.00078646
Loading maneuver chart data...
Computing Atmospheric mass density...
Loading historical data...
Loading historical data...
Loading historical data...
Loading historical data...
Loading historical data...
Loading historical data...
Loading historical data...

Documentation

Showing up to 5 results
|